Location: The Rolnick Observatory
(41.1711°N, 73.3275°W)
Time: 02:48:28
(UTC-05:00)

Daily predictions for brighter satellites

Satellite Brightness Start Highest point End
(mag) Time Altitude Azimuth Time Altitude Azimuth Time Altitude Azimuth
Cosmos 2056 Rocket 4.3 04:19:12 46° NE 04:19:33 47° ENE 04:24:28 10° SE
SL-16 R/B 4.1 04:27:06 18° N 04:27:06 18° N 04:28:36 10° NNE
Cosmos 1238 Rocket 4.1 04:24:54 54° SSE 04:24:54 54° SSE 04:29:32 10° S
USA 215 3.9 04:21:26 10° NE 04:27:47 52° SE 04:32:45 17° SSW
COSMO-SKYMED 1 4.1 04:28:24 10° SE 04:32:17 33° ENE 04:34:13 23° NNE
Cosmos 1624 Rocket 4.2 04:32:26 63° NNE 04:33:01 69° ENE 04:38:18 10° SSE
Cosmos 44 Rocket 3.8 04:34:58 41° S 04:36:34 61° ESE 04:41:37 10° NE
Cosmos 1371 Rocket 3.9 04:38:36 81° S 04:38:36 81° S 04:43:36 10° SSE
CENTAUR R/B 3.7 04:41:19 28° NNW 04:41:19 28° NNW 04:45:55 10° NNE
USA 32 3.9 04:43:48 71° SW 04:43:48 71° SW 04:48:33 10° S
BREEZE-M DEB (TANK) 4.3 04:42:55 39° SSW 04:44:33 60° SE 04:56:39 10° ENE
SL-08 ROCKET BODY 4.2 04:38:56 10° SSW 04:44:52 73° W 04:50:46 10° N
Lacrosse 5 1.8 04:44:47 70° SSW 04:45:19 80° SE 04:50:27 10° NE
Cosmos 192 4.5 04:42:21 10° S 04:47:13 70° ESE 04:52:06 10° NNE
Cosmos 1300 Rocket 3.8 04:44:17 10° S 04:48:40 69° E 04:53:03 10° NNE
Meteor 1-11 Rocket 4.4 04:46:10 10° S 04:51:52 57° E 04:57:29 10° NNE
Nadezhda 3 Rocket 4.5 04:46:09 10° N 04:52:27 62° E 04:58:45 10° SSE
Cosmos 2327 Rocket 4.5 04:54:42 10° SSW 05:00:57 60° W 05:07:12 10° N
Meteor 1-13 Rocket 4.3 04:56:29 10° N 05:02:29 85° E 05:08:25 10° S
Cosmos 1346 Rocket 4.3 05:05:51 24° SSW 05:05:51 24° SSW 05:07:35 10° S
Cosmos 1452 Rocket 4.1 05:04:24 14° N 05:08:48 55° ENE 05:13:58 10° SE
Meteor 2-13 Rocket 4.5 05:03:49 10° S 05:09:58 83° E 05:16:09 10° N
Cosmos 2074 Rocket 4.1 05:04:25 10° SSW 05:10:26 47° WNW 05:16:28 10° N
Tiangong 2 1.4 05:13:30 61° ENE 05:13:30 61° ENE 05:16:15 10° E
Meteor 2-4 Rocket 4.1 05:10:24 10° N 05:15:55 65° ENE 05:21:33 10° SSE
Cosmos 2341 Rocket 4.1 05:12:28 10° S 05:18:45 78° E 05:25:01 10° N
Cosmos 2369 Rocket 2.2 05:14:29 19° NNW 05:18:47 82° ENE 05:24:28 10° SSE
CRYOSAT 2 4.3 05:14:40 10° S 05:19:28 59° W 05:24:20 10° NNW
SKYMED 2 3.4 05:15:55 10° S 05:20:14 72° WSW 05:22:50 24° NNW
Cosmos 1603 4.0 05:19:00 30° WSW 05:21:10 43° WNW 05:26:34 10° NNE
Kosmos-1675 4.3 05:25:22 10° SSW 05:27:57 59° ESE 05:37:03 10° NE
Cosmos 2184 Rocket 4.4 05:23:14 10° SW 05:28:48 35° WNW 05:34:26 10° N
NOAA 6 4.1 05:24:21 10° N 05:29:18 50° WNW 05:34:15 10° SW
Cosmos 44 3.4 05:25:54 10° SW 05:31:16 80° WNW 05:36:29 10° NNE
SL-23 DEB 4.4 05:33:08 27° NNW 05:34:15 36° NNE 05:37:34 10° E
SL-24 R/B 4.4 05:34:28 10° NNE 05:39:52 85° WNW 05:44:26 10° SSW
Cosmos 1536 2.8 05:36:57 10° SSW 05:40:52 58° W 05:44:50 10° N
USA 129 2.6 05:39:52 10° SSE 05:41:55 47° ENE 05:42:55 24° NNE
USA 229 DEB 3.8 05:35:04 10° SSW 05:41:56 80° ESE 05:48:54 10° NE
USA 229 3.9 05:35:10 10° SSW 05:42:01 79° ESE 05:49:00 10° NE
Cosmos 1025 Rocket 2.9 05:38:49 10° NNW 05:43:12 75° W 05:47:31 10° S
CZ-4 R/B 2.7 05:39:37 10° NNE 05:43:24 42° E 05:47:05 10° S
Cosmos 1943 3.2 05:38:34 10° SW 05:44:07 61° WNW 05:49:43 10° NNE
Cosmos 2154 Rocket 4.1 05:38:37 10° SSW 05:44:37 51° WNW 05:50:39 10° N
Cosmos 1269 Rocket 4.5 05:43:15 10° S 05:48:28 66° ESE 05:53:44 10° NNE
YAOGAN 1 4.3 05:45:51 10° NNE 05:49:51 36° E 05:53:49 10° SSE
Cosmos 1633 3.5 05:47:44 10° SW 05:50:50 26° WNW 05:53:56 10° NNW
IRS-1A Rocket 4.5 05:49:49 10° NNE 05:55:34 81° ESE 06:01:24 10° SSW
Meteor 2-8 Rocket 4.5 05:49:47 10° N 05:55:59 88° W 06:02:09 10° S
Cosmos 1943 Rocket 2.3 05:51:36 10° NNW 05:57:08 79° ENE 06:02:38 10° SSE
Abrixas rocket 3.0 05:55:52 23° WNW 05:57:22 36° NNW 06:00:31 10° NE
Cosmos 468 4.4 05:53:18 10° SSW 05:58:33 75° WNW 06:03:52 10° NNE
DELTA 2 R/B(2) 3.7 05:59:39 18° WSW 06:01:17 60° S 06:02:58 10° E
Cosmos 1420 Rocket 4.0 05:56:50 10° NNW 06:02:07 86° WSW 06:07:19 10° SSE
Okean 1 Rocket 4.1 05:58:46 10° SW 06:02:19 24° WNW 06:05:52 10° NNW
Cosmos 1544 Rocket 3.5 06:00:06 10° S 06:04:27 86° W 06:08:52 10° N
CZ-3 R/B 3.2 05:58:50 10° SW 06:05:06 20° SSW 06:08:13 10° SE
Lacrosse 5 rocket 3.8 06:04:16 10° N 06:05:18 11° NNE 06:06:20 10° NNE
Lacrosse 4 Rocket 2.0 06:03:32 10° NNW 06:07:38 55° ENE 06:11:36 10° SE
COSMO-SKYMED 1 3.8 06:05:10 10° SW 06:08:29 21° W 06:11:25 12° NW
USA 215 3.5 06:04:29 10° NE 06:10:45 51° NNW 06:17:00 10° WSW
Ariane Rocket 3.5 06:07:39 10° N 06:12:17 37° WNW 06:16:54 10° SW
SL-8 Rocket 4.0 06:07:44 10° SSW 06:13:57 66° W 06:20:09 10° N
CZ-2C R/B 2.7 06:10:17 10° NNE 06:15:29 79° ESE 06:20:31 10° S
SPOT 3 Rocket 3.9 06:10:27 10° NNE 06:15:36 70° ESE 06:20:44 10° S
Cosmos 1048 Rocket 3.9 06:11:00 10° SSW 06:16:07 78° WNW 06:21:21 10° NNE
Cosmos 1656 Rocket 4.4 06:14:11 10° NNW 06:19:45 56° ENE 06:25:20 10° SE
AQUARIUS 4.2 06:19:12 10° NNE 06:23:43 86° WNW 06:28:14 10° SSW
Meteor 1-29 3.1 06:20:56 10° SSE 06:24:17 73° ENE 06:27:39 10° N
Cosmos 1500 3.7 06:21:13 10° S 06:24:55 62° E 06:28:39 10° NNE
Cosmos 1975 3.0 06:22:02 10° S 06:26:07 84° E 06:30:15 10° N
Cosmos 2366 rocket 4.0 06:20:11 10° SSW 06:26:27 72° W 06:32:49 10° N
Cosmos 1959 Rocket 4.5 06:21:39 10° SSW 06:27:40 61° W 06:33:42 10° N
Lacrosse 5 3.0 06:24:35 10° W 06:28:48 25° NNW 06:33:01 10° NNE
Cosmos 1892 Rocket 4.0 06:24:53 10° NNW 06:29:06 41° W 06:33:17 10° SSW
Helios 1B rocket 2.5 06:28:19 10° S 06:32:26 67° WSW 06:36:35 10° NNW
CENTAUR R/B 4.4 06:30:03 10° NW 06:33:05 13° NNW 06:36:16 10° NNE
MSX 4.3 06:27:21 10° NNE 06:33:06 69° ESE 06:38:48 10° S
Cosmos 2218 Rocket 4.2 06:28:34 10° SSW 06:34:49 55° W 06:41:05 10° N
Cosmos 405 Rocket 4.2 06:31:51 10° N 06:35:25 38° ENE 06:38:54 10° SE
MOS 1 4.3 06:34:18 10° N 06:39:56 74° WNW 06:45:34 10° SSW
IDEFIX/ARIANE 42P 2.6 06:36:26 10° N 06:41:35 64° WNW 06:46:43 10° SSW
